Time,TemperatureF,DewpointF,PressureIn,WindDirection,WindDirectionDegrees,WindSpeedMPH,WindSpeedGustMPH,Humidity,HourlyPrecipIn,Conditions,Clouds,dailyrainin,SolarRadiationWatts/m^2,SoftwareType,DateUTC
2013-08-02 00:02:00,85.0,63.0,-100.00,ESE,118,5.0,9.0,48,0.00,,,0.00,0.000000,,2013-08-02 05:02:00,
2013-08-02 00:32:00,83.0,62.0,-100.00,ESE,117,4.0,6.0,50,0.00,,,0.00,0.000000,,2013-08-02 05:32:00,
2013-08-02 00:43:00,83.0,62.0,-100.00,ESE,117,4.0,6.0,50,0.00,,,0.00,0.000000,,2013-08-02 05:43:00,
2013-08-02 00:53:00,83.0,62.0,-100.00,ESE,117,4.0,6.0,50,0.00,,,0.00,0.000000,,2013-08-02 05:53:00,
2013-08-02 01:02:00,83.0,62.0,-100.00,ESE,117,4.0,6.0,50,0.00,,,0.00,0.000000,,2013-08-02 06:02:00,
2013-08-02 01:33:00,81.0,62.0,-100.00,SE,143,4.0,6.0,53,0.00,,,0.00,0.000000,,2013-08-02 06:33:00,
2013-08-02 01:43:00,81.0,62.0,-100.00,SE,143,4.0,6.0,53,0.00,,,0.00,0.000000,,2013-08-02 06:43:00,
2013-08-02 01:52:00,81.0,62.0,-100.00,SE,143,4.0,6.0,53,0.00,,,0.00,0.000000,,2013-08-02 06:52:00,
2013-08-02 02:02:00,81.0,62.0,-100.00,SE,143,4.0,6.0,53,0.00,,,0.00,0.000000,,2013-08-02 07:02:00,
2013-08-02 02:33:00,81.0,63.0,-100.00,SE,138,3.0,7.0,55,0.00,,,0.00,0.000000,,2013-08-02 07:33:00,
2013-08-02 02:44:00,81.0,63.0,-100.00,SE,138,3.0,7.0,55,0.00,,,0.00,0.000000,,2013-08-02 07:44:00,
2013-08-02 02:53:00,81.0,63.0,-100.00,SE,138,3.0,7.0,55,0.00,,,0.00,0.000000,,2013-08-02 07:53:00,
2013-08-02 03:02:00,81.0,63.0,-100.00,SE,138,3.0,7.0,55,0.00,,,0.00,0.000000,,2013-08-02 08:02:00,
2013-08-02 03:33:00,79.0,63.0,-100.00,SE,139,3.0,5.0,58,0.00,,,0.00,0.000000,,2013-08-02 08:33:00,
2013-08-02 03:43:00,79.0,63.0,-100.00,SE,139,3.0,5.0,58,0.00,,,0.00,0.000000,,2013-08-02 08:43:00,
2013-08-02 03:54:00,79.0,63.0,-100.00,SE,139,3.0,5.0,58,0.00,,,0.00,0.000000,,2013-08-02 08:54:00,
2013-08-02 04:02:00,79.0,63.0,-100.00,SE,139,3.0,5.0,58,0.00,,,0.00,0.000000,,2013-08-02 09:02:00,
2013-08-02 04:33:00,79.0,64.0,-100.00,SSE,153,4.0,8.0,61,0.00,,,0.00,0.000000,,2013-08-02 09:33:00,
2013-08-02 04:44:00,79.0,64.0,-100.00,SSE,153,4.0,8.0,61,0.00,,,0.00,0.000000,,2013-08-02 09:44:00,
2013-08-02 04:53:00,79.0,64.0,-100.00,SSE,153,4.0,8.0,61,0.00,,,0.00,0.000000,,2013-08-02 09:53:00,
2013-08-02 05:03:00,79.0,64.0,-100.00,SSE,153,4.0,8.0,61,0.00,,,0.00,0.000000,,2013-08-02 10:03:00,
2013-08-02 05:33:00,78.0,63.0,-100.00,SE,133,5.0,7.0,61,0.00,,,0.00,0.000000,,2013-08-02 10:33:00,
2013-08-02 05:43:00,78.0,63.0,-100.00,SE,133,5.0,7.0,61,0.00,,,0.00,0.000000,,2013-08-02 10:43:00,
2013-08-02 05:52:00,78.0,63.0,-100.00,SE,133,5.0,7.0,61,0.00,,,0.00,0.000000,,2013-08-02 10:52:00,
2013-08-02 06:02:00,78.0,63.0,-100.00,SE,133,5.0,7.0,61,0.00,,,0.00,0.000000,,2013-08-02 11:02:00,
2013-08-02 07:33:00,77.0,64.0,-100.00,ESE,115,4.0,10.0,64,-99.99,,,0.00,1.000000,,2013-08-02 12:33:00,
2013-08-02 07:43:00,77.0,64.0,-100.00,ESE,115,4.0,10.0,64,-99.99,,,0.00,1.000000,,2013-08-02 12:43:00,
2013-08-02 07:52:00,77.0,64.0,-100.00,ESE,115,4.0,10.0,64,-99.99,,,0.00,1.000000,,2013-08-02 12:52:00,
2013-08-02 08:02:00,77.0,64.0,-100.00,ESE,115,4.0,10.0,64,-99.99,,,0.00,1.000000,,2013-08-02 13:02:00,
2013-08-02 08:33:00,78.0,63.0,-100.00,South,174,2.0,7.0,61,0.00,,,0.00,36.000000,,2013-08-02 13:33:00,
2013-08-02 08:43:00,78.0,63.0,-100.00,South,174,2.0,7.0,61,0.00,,,0.00,36.000000,,2013-08-02 13:43:00,
2013-08-02 08:52:00,78.0,63.0,-100.00,South,174,2.0,7.0,61,0.00,,,0.00,36.000000,,2013-08-02 13:52:00,
2013-08-02 09:02:00,78.0,63.0,-100.00,South,174,2.0,7.0,61,0.00,,,0.00,36.000000,,2013-08-02 14:02:00,
2013-08-02 09:32:00,85.0,64.0,-100.00,SSW,198,4.0,9.0,50,0.00,,,0.00,280.000000,,2013-08-02 14:32:00,
2013-08-02 09:43:00,85.0,64.0,-100.00,SSW,198,4.0,9.0,50,0.00,,,0.00,280.000000,,2013-08-02 14:43:00,
2013-08-02 09:53:00,85.0,64.0,-100.00,SSW,198,4.0,9.0,50,0.00,,,0.00,280.000000,,2013-08-02 14:53:00,
2013-08-02 10:03:00,85.0,64.0,-100.00,SSW,198,4.0,9.0,50,0.00,,,0.00,280.000000,,2013-08-02 15:03:00,
2013-08-02 10:32:00,88.0,63.0,-100.00,SSW,205,9.0,12.0,43,0.00,,,0.00,521.000000,,2013-08-02 15:32:00,
2013-08-02 10:43:00,88.0,63.0,-100.00,SSW,205,9.0,12.0,43,0.00,,,0.00,521.000000,,2013-08-02 15:43:00,
2013-08-02 10:52:00,88.0,63.0,-100.00,SSW,205,9.0,12.0,43,0.00,,,0.00,521.000000,,2013-08-02 15:52:00,
2013-08-02 11:02:00,88.0,63.0,-100.00,SSW,205,9.0,12.0,43,0.00,,,0.00,521.000000,,2013-08-02 16:02:00,
2013-08-02 11:32:00,91.0,64.0,-100.00,SSW,211,9.0,13.0,41,0.00,,,0.00,705.000000,,2013-08-02 16:32:00,
2013-08-02 11:43:00,91.0,64.0,-100.00,SSW,211,9.0,13.0,41,0.00,,,0.00,705.000000,,2013-08-02 16:43:00,
2013-08-02 11:53:00,91.0,64.0,-100.00,SSW,211,9.0,13.0,41,0.00,,,0.00,705.000000,,2013-08-02 16:53:00,
2013-08-02 12:02:00,91.0,64.0,-100.00,SSW,211,9.0,13.0,41,0.00,,,0.00,705.000000,,2013-08-02 17:02:00,
2013-08-02 12:35:00,94.0,65.0,-100.00,South,181,9.0,14.0,39,0.00,,,0.00,873.000000,,2013-08-02 17:35:00,
2013-08-02 12:43:00,94.0,65.0,-100.00,South,181,9.0,14.0,39,0.00,,,0.00,873.000000,,2013-08-02 17:43:00,
2013-08-02 12:52:00,94.0,65.0,-100.00,South,181,9.0,14.0,39,0.00,,,0.00,873.000000,,2013-08-02 17:52:00,
2013-08-02 13:02:00,94.0,65.0,-100.00,South,181,9.0,14.0,39,0.00,,,0.00,873.000000,,2013-08-02 18:02:00,
2013-08-02 13:32:00,97.0,63.0,-100.00,South,177,8.0,17.0,33,0.00,,,0.00,991.000000,,2013-08-02 18:32:00,
2013-08-02 13:43:00,97.0,63.0,-100.00,South,177,8.0,17.0,33,0.00,,,0.00,991.000000,,2013-08-02 18:43:00,
2013-08-02 13:52:00,97.0,63.0,-100.00,South,177,8.0,17.0,33,0.00,,,0.00,991.000000,,2013-08-02 18:52:00,
2013-08-02 14:02:00,97.0,63.0,-100.00,South,177,8.0,17.0,33,0.00,,,0.00,991.000000,,2013-08-02 19:02:00,
2013-08-02 14:32:00,98.0,62.0,-100.00,SE,145,8.0,17.0,31,0.00,,,0.00,1039.000000,,2013-08-02 19:32:00,
2013-08-02 14:43:00,98.0,62.0,-100.00,SE,145,8.0,17.0,31,0.00,,,0.00,1039.000000,,2013-08-02 19:43:00,
2013-08-02 14:52:00,98.0,62.0,-100.00,SE,145,8.0,17.0,31,0.00,,,0.00,1039.000000,,2013-08-02 19:52:00,
2013-08-02 15:02:00,98.0,62.0,-100.00,SE,145,8.0,17.0,31,0.00,,,0.00,1039.000000,,2013-08-02 20:02:00,
2013-08-02 15:33:00,99.0,62.0,-100.00,SSE,160,8.0,16.0,30,0.00,,,0.00,1007.000000,,2013-08-02 20:33:00,
2013-08-02 15:43:00,99.0,62.0,-100.00,SSE,160,8.0,16.0,30,0.00,,,0.00,1007.000000,,2013-08-02 20:43:00,
2013-08-02 15:52:00,99.0,62.0,-100.00,SSE,160,8.0,16.0,30,0.00,,,0.00,1007.000000,,2013-08-02 20:52:00,
2013-08-02 16:02:00,99.0,62.0,-100.00,SSE,160,8.0,16.0,30,0.00,,,0.00,1007.000000,,2013-08-02 21:02:00,
2013-08-02 16:33:00,101.0,62.0,-100.00,SSE,147,7.0,15.0,28,0.00,,,0.00,924.000000,,2013-08-02 21:33:00,
2013-08-02 16:43:00,101.0,62.0,-100.00,SSE,147,7.0,15.0,28,0.00,,,0.00,924.000000,,2013-08-02 21:43:00,
2013-08-02 16:53:00,101.0,62.0,-100.00,SSE,147,7.0,15.0,28,0.00,,,0.00,924.000000,,2013-08-02 21:53:00,
2013-08-02 17:02:00,101.0,62.0,-100.00,SSE,147,7.0,15.0,28,0.00,,,0.00,924.000000,,2013-08-02 22:02:00,
2013-08-02 17:32:00,100.0,59.0,-100.00,ESE,119,8.0,15.0,26,0.00,,,-99.99,780.000000,,2013-08-02 22:32:00,
2013-08-02 17:43:00,100.0,59.0,-100.00,ESE,119,8.0,15.0,26,0.00,,,-99.99,780.000000,,2013-08-02 22:43:00,
2013-08-02 17:52:00,100.0,59.0,-100.00,ESE,119,8.0,15.0,26,0.00,,,-99.99,780.000000,,2013-08-02 22:52:00,
2013-08-02 18:02:00,100.0,59.0,-100.00,ESE,119,8.0,15.0,26,0.00,,,-99.99,780.000000,,2013-08-02 23:02:00,
2013-08-02 18:32:00,101.0,57.0,-100.00,SSE,156,6.0,14.0,24,0.00,,,0.00,585.000000,,2013-08-02 23:32:00,
2013-08-02 18:43:00,101.0,57.0,-100.00,SSE,156,6.0,14.0,24,0.00,,,0.00,585.000000,,2013-08-02 23:43:00,
2013-08-02 18:53:00,101.0,57.0,-100.00,SSE,156,6.0,14.0,24,0.00,,,0.00,585.000000,,2013-08-02 23:53:00,
2013-08-02 19:02:00,101.0,57.0,-100.00,SSE,156,6.0,14.0,24,0.00,,,0.00,585.000000,,2013-08-03 00:02:00,
2013-08-02 19:33:00,99.0,57.0,-100.00,SE,135,8.0,13.0,25,0.00,,,0.00,349.000000,,2013-08-03 00:33:00,
2013-08-02 19:43:00,99.0,57.0,-100.00,SE,135,8.0,13.0,25,0.00,,,0.00,349.000000,,2013-08-03 00:43:00,
2013-08-02 19:52:00,99.0,57.0,-100.00,SE,135,8.0,13.0,25,0.00,,,0.00,349.000000,,2013-08-03 00:52:00,
2013-08-02 20:02:00,99.0,57.0,-100.00,SE,135,8.0,13.0,25,0.00,,,0.00,349.000000,,2013-08-03 01:02:00,
2013-08-02 20:33:00,94.0,55.0,-100.00,ESE,114,9.0,16.0,27,0.00,,,0.00,141.000000,,2013-08-03 01:33:00,
2013-08-02 20:43:00,94.0,55.0,-100.00,ESE,114,9.0,16.0,27,0.00,,,0.00,141.000000,,2013-08-03 01:43:00,
2013-08-02 20:53:00,94.0,55.0,-100.00,ESE,114,9.0,16.0,27,0.00,,,0.00,141.000000,,2013-08-03 01:53:00,
2013-08-02 21:02:00,94.0,55.0,-100.00,ESE,114,9.0,16.0,27,0.00,,,0.00,141.000000,,2013-08-03 02:02:00,
2013-08-02 21:32:00,90.0,56.0,-100.00,ESE,105,8.0,14.0,32,0.00,,,0.00,14.000000,,2013-08-03 02:32:00,
2013-08-02 21:43:00,90.0,56.0,-100.00,ESE,105,8.0,14.0,32,0.00,,,0.00,14.000000,,2013-08-03 02:43:00,
2013-08-02 21:52:00,90.0,56.0,-100.00,ESE,105,8.0,14.0,32,0.00,,,0.00,14.000000,,2013-08-03 02:52:00,
2013-08-02 22:02:00,90.0,56.0,-100.00,ESE,105,8.0,14.0,32,0.00,,,0.00,14.000000,,2013-08-03 03:02:00,
2013-08-02 22:32:00,87.0,58.0,-100.00,East,95,9.0,12.0,37,0.00,,,0.00,0.000000,,2013-08-03 03:32:00,
2013-08-02 22:43:00,87.0,58.0,-100.00,East,95,9.0,12.0,37,0.00,,,0.00,0.000000,,2013-08-03 03:43:00,
2013-08-02 22:53:00,87.0,58.0,-100.00,East,95,9.0,12.0,37,0.00,,,0.00,0.000000,,2013-08-03 03:53:00,
2013-08-02 23:02:00,87.0,58.0,-100.00,East,95,9.0,12.0,37,0.00,,,0.00,0.000000,,2013-08-03 04:02:00,
2013-08-02 23:33:00,85.0,58.0,-100.00,ESE,117,8.0,11.0,40,0.00,,,0.00,0.000000,,2013-08-03 04:33:00,
2013-08-02 23:43:00,85.0,58.0,-100.00,ESE,117,8.0,11.0,40,0.00,,,0.00,0.000000,,2013-08-03 04:43:00,
2013-08-02 23:53:00,85.0,58.0,-100.00,ESE,117,8.0,11.0,40,0.00,,,0.00,0.000000,,2013-08-03 04:53:00,